Time,TemperatureF,DewpointF,PressureIn,WindDirection,WindDirectionDegrees,WindSpeedMPH,WindSpeedGustMPH,Humidity,HourlyPrecipIn,Conditions,Clouds,dailyrainin,SoftwareType,DateUTC
2013-06-27 00:01:00,74.4,69.4,29.58,North,-999,-999.0,-999.0,86,-99.99,,,-99.99,,2013-06-27 04:01:00,
2013-06-27 00:02:00,74.4,69.4,29.58,North,-999,-999.0,-999.0,86,-99.99,,,-99.99,,2013-06-27 04:02:00,
2013-06-27 00:07:00,74.6,69.5,29.58,North,-999,-999.0,-999.0,85,-99.99,,,-99.99,,2013-06-27 04:07:00,
2013-06-27 00:12:00,75.0,69.6,29.58,North,-999,-999.0,-999.0,84,-99.99,,,-99.99,,2013-06-27 04:12:00,
2013-06-27 00:17:00,75.2,69.5,29.58,North,-999,-999.0,-999.0,83,-99.99,,,-99.99,,2013-06-27 04:17:00,
2013-06-27 00:22:00,75.3,69.4,29.58,North,-999,-999.0,-999.0,83,-99.99,,,-99.99,,2013-06-27 04:22:00,
2013-06-27 00:27:00,75.3,69.4,29.58,North,-999,-999.0,-999.0,83,-99.99,,,-99.99,,2013-06-27 04:27:00,
2013-06-27 00:32:00,75.3,69.4,29.58,North,-999,-999.0,-999.0,83,-99.99,,,-99.99,,2013-06-27 04:32:00,
2013-06-27 00:37:00,75.3,69.6,29.58,North,-999,-999.0,-999.0,84,-99.99,,,-99.99,,2013-06-27 04:37:00,
2013-06-27 00:42:00,75.2,69.6,29.58,North,-999,-999.0,-999.0,84,-99.99,,,-99.99,,2013-06-27 04:42:00,
2013-06-27 00:47:00,74.8,69.3,29.58,North,-999,-999.0,-999.0,84,-99.99,,,-99.99,,2013-06-27 04:47:00,
2013-06-27 00:52:00,74.8,69.3,29.58,North,-999,-999.0,-999.0,84,-99.99,,,-99.99,,2013-06-27 04:52:00,
2013-06-27 00:57:00,74.6,69.3,29.58,North,-999,-999.0,-999.0,85,-99.99,,,-99.99,,2013-06-27 04:57:00,
2013-06-27 01:02:00,74.4,69.2,29.58,North,-999,-999.0,-999.0,85,-99.99,,,-99.99,,2013-06-27 05:02:00,
2013-06-27 01:07:00,74.4,69.3,29.58,North,-999,-999.0,-999.0,85,-99.99,,,-99.99,,2013-06-27 05:07:00,
2013-06-27 01:12:00,74.3,69.4,29.58,North,-999,-999.0,-999.0,86,-99.99,,,-99.99,,2013-06-27 05:12:00,
2013-06-27 01:17:00,74.3,69.5,29.58,North,-999,-999.0,-999.0,86,-99.99,,,-99.99,,2013-06-27 05:17:00,
2013-06-27 01:22:00,74.4,69.5,29.57,North,-999,-999.0,-999.0,86,-99.99,,,-99.99,,2013-06-27 05:22:00,
2013-06-27 01:27:00,74.6,69.6,29.57,North,-999,-999.0,-999.0,86,-99.99,,,-99.99,,2013-06-27 05:27:00,
2013-06-27 01:32:00,74.6,69.7,29.57,North,-999,-999.0,-999.0,86,-99.99,,,-99.99,,2013-06-27 05:32:00,
2013-06-27 01:37:00,74.6,69.7,29.57,North,-999,-999.0,-999.0,86,-99.99,,,-99.99,,2013-06-27 05:37:00,
2013-06-27 01:42:00,74.6,69.7,29.57,North,-999,-999.0,-999.0,86,-99.99,,,-99.99,,2013-06-27 05:42:00,
2013-06-27 01:47:00,74.4,69.6,29.57,North,-999,-999.0,-999.0,86,-99.99,,,-99.99,,2013-06-27 05:47:00,
2013-06-27 01:52:00,74.4,69.6,29.57,North,-999,-999.0,-999.0,86,-99.99,,,-99.99,,2013-06-27 05:52:00,
2013-06-27 01:57:00,74.4,69.6,29.57,North,-999,-999.0,-999.0,86,-99.99,,,-99.99,,2013-06-27 05:57:00,
2013-06-27 02:02:00,74.3,69.6,29.57,North,-999,-999.0,-999.0,86,-99.99,,,-99.99,,2013-06-27 06:02:00,
2013-06-27 02:07:00,74.3,70.0,29.57,North,-999,-999.0,-999.0,87,-99.99,,,-99.99,,2013-06-27 06:07:00,
2013-06-27 02:12:00,74.3,70.2,29.57,North,-999,-999.0,-999.0,88,-99.99,,,-99.99,,2013-06-27 06:12:00,
2013-06-27 02:17:00,74.3,70.3,29.57,North,-999,-999.0,-999.0,88,-99.99,,,-99.99,,2013-06-27 06:17:00,
2013-06-27 02:22:00,74.1,70.0,29.57,North,-999,-999.0,-999.0,88,-99.99,,,-99.99,,2013-06-27 06:22:00,
2013-06-27 02:27:00,74.1,70.0,29.57,North,-999,-999.0,-999.0,88,-99.99,,,-99.99,,2013-06-27 06:27:00,
2013-06-27 02:32:00,74.1,70.1,29.57,North,-999,-999.0,-999.0,88,-99.99,,,-99.99,,2013-06-27 06:32:00,
2013-06-27 02:37:00,73.9,70.0,29.57,North,-999,-999.0,-999.0,88,-99.99,,,-99.99,,2013-06-27 06:37:00,
2013-06-27 02:42:00,73.9,70.1,29.57,North,-999,-999.0,-999.0,89,-99.99,,,-99.99,,2013-06-27 06:42:00,
2013-06-27 02:47:00,73.9,70.1,29.57,North,-999,-999.0,-999.0,89,-99.99,,,-99.99,,2013-06-27 06:47:00,
2013-06-27 02:52:00,73.7,69.9,29.57,North,-999,-999.0,-999.0,89,-99.99,,,-99.99,,2013-06-27 06:52:00,
2013-06-27 02:57:00,73.7,69.9,29.57,North,-999,-999.0,-999.0,89,-99.99,,,-99.99,,2013-06-27 06:57:00,
2013-06-27 03:02:00,73.7,69.9,29.57,North,-999,-999.0,-999.0,89,-99.99,,,-99.99,,2013-06-27 07:02:00,
2013-06-27 03:07:00,73.5,69.7,29.56,North,-999,-999.0,-999.0,89,-99.99,,,-99.99,,2013-06-27 07:07:00,
2013-06-27 03:12:00,73.5,69.6,29.56,North,-999,-999.0,-999.0,89,-99.99,,,-99.99,,2013-06-27 07:12:00,
2013-06-27 03:17:00,73.4,69.5,29.56,North,-999,-999.0,-999.0,89,-99.99,,,-99.99,,2013-06-27 07:17:00,
2013-06-27 03:22:00,73.2,69.4,29.56,North,-999,-999.0,-999.0,89,-99.99,,,-99.99,,2013-06-27 07:22:00,
2013-06-27 03:27:00,73.2,69.4,29.56,North,-999,-999.0,-999.0,89,-99.99,,,-99.99,,2013-06-27 07:27:00,
2013-06-27 03:32:00,73.0,69.2,29.56,North,-999,-999.0,-999.0,89,-99.99,,,-99.99,,2013-06-27 07:32:00,
2013-06-27 03:37:00,72.8,69.1,29.56,North,-999,-999.0,-999.0,89,-99.99,,,-99.99,,2013-06-27 07:37:00,
2013-06-27 03:42:00,72.6,68.9,29.55,North,-999,-999.0,-999.0,89,-99.99,,,-99.99,,2013-06-27 07:42:00,
2013-06-27 03:47:00,72.6,69.0,29.55,North,-999,-999.0,-999.0,89,-99.99,,,-99.99,,2013-06-27 07:47:00,
2013-06-27 03:52:00,72.5,69.0,29.55,North,-999,-999.0,-999.0,90,-99.99,,,-99.99,,2013-06-27 07:52:00,
2013-06-27 03:57:00,72.5,69.1,29.54,North,-999,-999.0,-999.0,90,-99.99,,,-99.99,,2013-06-27 07:57:00,
2013-06-27 04:02:00,72.3,68.6,29.54,North,-999,-999.0,-999.0,89,-99.99,,,-99.99,,2013-06-27 08:02:00,
2013-06-27 04:07:00,72.3,68.6,29.54,North,-999,-999.0,-999.0,89,-99.99,,,-99.99,,2013-06-27 08:07:00,
2013-06-27 04:12:00,72.3,68.6,29.54,North,-999,-999.0,-999.0,89,-99.99,,,-99.99,,2013-06-27 08:12:00,
2013-06-27 04:17:00,72.1,68.4,29.54,North,-999,-999.0,-999.0,89,-99.99,,,-99.99,,2013-06-27 08:17:00,
2013-06-27 04:22:00,71.9,68.3,29.54,North,-999,-999.0,-999.0,89,-99.99,,,-99.99,,2013-06-27 08:22:00,
2013-06-27 04:27:00,71.7,68.2,29.54,North,-999,-999.0,-999.0,90,-99.99,,,-99.99,,2013-06-27 08:27:00,
2013-06-27 04:32:00,71.7,68.2,29.54,North,-999,-999.0,-999.0,90,-99.99,,,-99.99,,2013-06-27 08:32:00,
2013-06-27 04:37:00,71.7,68.1,29.54,North,-999,-999.0,-999.0,90,-99.99,,,-99.99,,2013-06-27 08:37:00,
2013-06-27 04:42:00,71.6,68.2,29.54,North,-999,-999.0,-999.0,90,-99.99,,,-99.99,,2013-06-27 08:42:00,
2013-06-27 04:47:00,71.6,68.2,29.54,North,-999,-999.0,-999.0,90,-99.99,,,-99.99,,2013-06-27 08:47:00,
2013-06-27 04:52:00,71.6,68.2,29.55,North,-999,-999.0,-999.0,90,-99.99,,,-99.99,,2013-06-27 08:52:00,
2013-06-27 04:57:00,71.4,67.9,29.55,North,-999,-999.0,-999.0,90,-99.99,,,-99.99,,2013-06-27 08:57:00,
2013-06-27 05:02:00,71.4,68.0,29.55,North,-999,-999.0,-999.0,90,-99.99,,,-99.99,,2013-06-27 09:02:00,
2013-06-27 05:07:00,71.4,68.2,29.55,North,-999,-999.0,-999.0,91,-99.99,,,-99.99,,2013-06-27 09:07:00,
2013-06-27 05:12:00,71.0,67.9,29.55,North,-999,-999.0,-999.0,91,-99.99,,,-99.99,,2013-06-27 09:12:00,
2013-06-27 05:17:00,71.0,67.8,29.56,North,-999,-999.0,-999.0,90,-99.99,,,-99.99,,2013-06-27 09:17:00,
2013-06-27 05:22:00,71.0,67.7,29.56,North,-999,-999.0,-999.0,90,-99.99,,,-99.99,,2013-06-27 09:22:00,
2013-06-27 05:27:00,71.0,67.8,29.56,North,-999,-999.0,-999.0,91,-99.99,,,-99.99,,2013-06-27 09:27:00,
2013-06-27 05:32:00,70.8,67.8,29.56,North,-999,-999.0,-999.0,91,-99.99,,,-99.99,,2013-06-27 09:32:00,
2013-06-27 05:37:00,71.0,68.1,29.56,North,-999,-999.0,-999.0,91,-99.99,,,-99.99,,2013-06-27 09:37:00,
2013-06-27 05:42:00,71.4,68.6,29.56,North,-999,-999.0,-999.0,92,-99.99,,,-99.99,,2013-06-27 09:42:00,
2013-06-27 05:47:00,71.4,68.5,29.56,North,-999,-999.0,-999.0,91,-99.99,,,-99.99,,2013-06-27 09:47:00,
2013-06-27 05:52:00,71.6,68.6,29.56,North,-999,-999.0,-999.0,91,-99.99,,,-99.99,,2013-06-27 09:52:00,
2013-06-27 05:57:00,71.6,68.7,29.56,North,-999,-999.0,-999.0,91,-99.99,,,-99.99,,2013-06-27 09:57:00,
2013-06-27 06:02:00,71.6,68.5,29.56,North,-999,-999.0,-999.0,91,-99.99,,,-99.99,,2013-06-27 10:02:00,
2013-06-27 06:07:00,71.6,68.5,29.56,North,-999,-999.0,-999.0,91,-99.99,,,-99.99,,2013-06-27 10:07:00,
2013-06-27 06:12:00,71.6,68.4,29.56,North,-999,-999.0,-999.0,90,-99.99,,,-99.99,,2013-06-27 10:12:00,
2013-06-27 06:17:00,71.4,68.3,29.56,North,-999,-999.0,-999.0,91,-99.99,,,-99.99,,2013-06-27 10:17:00,
2013-06-27 06:22:00,71.4,68.3,29.56,North,-999,-999.0,-999.0,91,-99.99,,,-99.99,,2013-06-27 10:22:00,
2013-06-27 06:27:00,71.6,68.6,29.56,North,-999,-999.0,-999.0,91,-99.99,,,-99.99,,2013-06-27 10:27:00,
2013-06-27 06:32:00,71.6,68.5,29.56,North,-999,-999.0,-999.0,91,-99.99,,,-99.99,,2013-06-27 10:32:00,
2013-06-27 06:37:00,71.6,68.5,29.56,North,-999,-999.0,-999.0,91,-99.99,,,-99.99,,2013-06-27 10:37:00,
2013-06-27 06:42:00,71.9,68.9,29.56,North,-999,-999.0,-999.0,91,-99.99,,,-99.99,,2013-06-27 10:42:00,
2013-06-27 06:47:00,71.7,68.6,29.56,North,-999,-999.0,-999.0,91,-99.99,,,-99.99,,2013-06-27 10:47:00,
2013-06-27 06:52:00,72.1,68.9,29.56,North,-999,-999.0,-999.0,91,-99.99,,,-99.99,,2013-06-27 10:52:00,
2013-06-27 06:57:00,72.1,68.8,29.56,North,-999,-999.0,-999.0,90,-99.99,,,-99.99,,2013-06-27 10:57:00,
2013-06-27 07:02:00,72.3,69.0,29.56,North,-999,-999.0,-999.0,90,-99.99,,,-99.99,,2013-06-27 11:02:00,
2013-06-27 07:07:00,72.3,69.0,29.56,North,-999,-999.0,-999.0,90,-99.99,,,-99.99,,2013-06-27 11:07:00,
2013-06-27 07:12:00,72.5,69.2,29.55,North,-999,-999.0,-999.0,90,-99.99,,,-99.99,,2013-06-27 11:12:00,
2013-06-27 07:17:00,72.5,69.3,29.55,North,-999,-999.0,-999.0,90,-99.99,,,-99.99,,2013-06-27 11:17:00,
2013-06-27 07:22:00,72.5,69.3,29.55,North,-999,-999.0,-999.0,90,-99.99,,,-99.99,,2013-06-27 11:22:00,
2013-06-27 07:27:00,72.5,69.2,29.56,North,-999,-999.0,-999.0,90,-99.99,,,-99.99,,2013-06-27 11:27:00,
2013-06-27 07:32:00,72.6,69.3,29.55,North,-999,-999.0,-999.0,90,-99.99,,,-99.99,,2013-06-27 11:32:00,
2013-06-27 07:37:00,73.0,69.6,29.55,North,-999,-999.0,-999.0,90,-99.99,,,-99.99,,2013-06-27 11:37:00,
2013-06-27 07:42:00,73.0,69.4,29.55,North,-999,-999.0,-999.0,90,-99.99,,,-99.99,,2013-06-27 11:42:00,
2013-06-27 07:47:00,73.2,69.6,29.54,North,-999,-999.0,-999.0,89,-99.99,,,-99.99,,2013-06-27 11:47:00,
2013-06-27 07:52:00,73.0,69.3,29.54,North,-999,-999.0,-999.0,89,-99.99,,,-99.99,,2013-06-27 11:52:00,
2013-06-27 07:57:00,73.2,69.5,29.54,North,-999,-999.0,-999.0,89,-99.99,,,-99.99,,2013-06-27 11:57:00,
2013-06-27 08:02:00,73.2,69.5,29.54,North,-999,-999.0,-999.0,89,-99.99,,,-99.99,,2013-06-27 12:02:00,
2013-06-27 08:07:00,73.4,69.7,29.54,North,-999,-999.0,-999.0,89,-99.99,,,-99.99,,2013-06-27 12:07:00,
2013-06-27 08:12:00,73.7,69.8,29.54,North,-999,-999.0,-999.0,89,-99.99,,,-99.99,,2013-06-27 12:12:00,
2013-06-27 08:17:00,73.7,69.7,29.54,North,-999,-999.0,-999.0,88,-99.99,,,-99.99,,2013-06-27 12:17:00,
2013-06-27 08:22:00,73.9,69.9,29.54,North,-999,-999.0,-999.0,88,-99.99,,,-99.99,,2013-06-27 12:22:00,
2013-06-27 08:27:00,73.9,69.8,29.54,North,-999,-999.0,-999.0,88,-99.99,,,-99.99,,2013-06-27 12:27:00,
2013-06-27 08:32:00,73.9,69.8,29.54,North,-999,-999.0,-999.0,88,-99.99,,,-99.99,,2013-06-27 12:32:00,
2013-06-27 08:37:00,73.9,69.8,29.54,North,-999,-999.0,-999.0,88,-99.99,,,-99.99,,2013-06-27 12:37:00,
2013-06-27 08:42:00,74.3,70.1,29.54,North,-999,-999.0,-999.0,88,-99.99,,,-99.99,,2013-06-27 12:42:00,
2013-06-27 08:47:00,74.4,70.1,29.54,North,-999,-999.0,-999.0,87,-99.99,,,-99.99,,2013-06-27 12:47:00,
2013-06-27 08:52:00,75.2,70.9,29.53,North,-999,-999.0,-999.0,87,-99.99,,,-99.99,,2013-06-27 12:52:00,
2013-06-27 08:57:00,75.5,70.3,29.53,North,-999,-999.0,-999.0,85,-99.99,,,-99.99,,2013-06-27 12:57:00,
2013-06-27 09:02:00,75.5,70.2,29.53,North,-999,-999.0,-999.0,85,-99.99,,,-99.99,,2013-06-27 13:02:00,
2013-06-27 09:08:00,75.5,70.3,29.53,North,-999,-999.0,-999.0,85,-99.99,,,-99.99,,2013-06-27 13:08:00,
2013-06-27 09:13:00,75.5,70.4,29.53,North,-999,-999.0,-999.0,85,-99.99,,,-99.99,,2013-06-27 13:13:00,
2013-06-27 09:18:00,75.7,70.7,29.52,North,-999,-999.0,-999.0,85,-99.99,,,-99.99,,2013-06-27 13:18:00,
2013-06-27 09:23:00,76.1,71.0,29.52,North,-999,-999.0,-999.0,85,-99.99,,,-99.99,,2013-06-27 13:23:00,
2013-06-27 09:28:00,76.6,71.3,29.52,North,-999,-999.0,-999.0,85,-99.99,,,-99.99,,2013-06-27 13:28:00,
2013-06-27 09:33:00,77.0,71.3,29.52,North,-999,-999.0,-999.0,84,-99.99,,,-99.99,,2013-06-27 13:33:00,
2013-06-27 09:38:00,77.3,71.6,29.51,North,-999,-999.0,-999.0,83,-99.99,,,-99.99,,2013-06-27 13:38:00,
2013-06-27 09:43:00,77.7,71.6,29.51,North,-999,-999.0,-999.0,83,-99.99,,,-99.99,,2013-06-27 13:43:00,
2013-06-27 09:48:00,77.9,71.6,29.51,North,-999,-999.0,-999.0,82,-99.99,,,-99.99,,2013-06-27 13:48:00,
2013-06-27 09:53:00,77.9,71.8,29.51,North,-999,-999.0,-999.0,82,-99.99,,,-99.99,,2013-06-27 13:53:00,
2013-06-27 09:58:00,78.0,71.8,29.50,North,-999,-999.0,-999.0,82,-99.99,,,-99.99,,2013-06-27 13:58:00,
2013-06-27 10:03:00,78.4,72.1,29.50,North,-999,-999.0,-999.0,82,-99.99,,,-99.99,,2013-06-27 14:03:00,
2013-06-27 10:08:00,78.9,72.3,29.50,North,-999,-999.0,-999.0,81,-99.99,,,-99.99,,2013-06-27 14:08:00,
2013-06-27 10:13:00,79.3,72.8,29.49,North,-999,-999.0,-999.0,81,-99.99,,,-99.99,,2013-06-27 14:13:00,
2013-06-27 10:18:00,79.8,72.9,29.49,North,-999,-999.0,-999.0,80,-99.99,,,-99.99,,2013-06-27 14:18:00,
2013-06-27 10:23:00,80.2,73.5,29.49,North,-999,-999.0,-999.0,81,-99.99,,,-99.99,,2013-06-27 14:23:00,
2013-06-27 10:28:00,80.6,73.3,29.48,North,-999,-999.0,-999.0,79,-99.99,,,-99.99,,2013-06-27 14:28:00,
2013-06-27 10:33:00,80.6,72.9,29.48,North,-999,-999.0,-999.0,78,-99.99,,,-99.99,,2013-06-27 14:33:00,
2013-06-27 10:38:00,80.7,72.6,29.48,North,-999,-999.0,-999.0,77,-99.99,,,-99.99,,2013-06-27 14:38:00,
2013-06-27 10:43:00,81.1,72.7,29.47,North,-999,-999.0,-999.0,76,-99.99,,,-99.99,,2013-06-27 14:43:00,
2013-06-27 10:48:00,81.3,72.2,29.47,North,-999,-999.0,-999.0,74,-99.99,,,-99.99,,2013-06-27 14:48:00,
2013-06-27 10:53:00,81.6,72.9,29.46,North,-999,-999.0,-999.0,75,-99.99,,,-99.99,,2013-06-27 14:53:00,
2013-06-27 10:58:00,82.2,72.9,29.46,North,-999,-999.0,-999.0,74,-99.99,,,-99.99,,2013-06-27 14:58:00,
2013-06-27 11:03:00,82.2,72.4,29.45,North,-999,-999.0,-999.0,72,-99.99,,,-99.99,,2013-06-27 15:03:00,
2013-06-27 11:08:00,82.4,73.0,29.45,North,-999,-999.0,-999.0,73,-99.99,,,-99.99,,2013-06-27 15:08:00,
2013-06-27 11:13:00,82.5,73.2,29.45,North,-999,-999.0,-999.0,73,-99.99,,,-99.99,,2013-06-27 15:13:00,
2013-06-27 11:18:00,82.9,72.2,29.45,North,-999,-999.0,-999.0,70,-99.99,,,-99.99,,2013-06-27 15:18:00,
2013-06-27 11:23:00,83.1,73.2,29.45,North,-999,-999.0,-999.0,72,-99.99,,,-99.99,,2013-06-27 15:23:00,
2013-06-27 11:28:00,83.1,72.9,29.44,North,-999,-999.0,-999.0,71,-99.99,,,-99.99,,2013-06-27 15:28:00,
2013-06-27 11:33:00,82.5,72.8,29.44,North,-999,-999.0,-999.0,73,-99.99,,,-99.99,,2013-06-27 15:33:00,
2013-06-27 11:38:00,82.4,72.5,29.44,North,-999,-999.0,-999.0,72,-99.99,,,-99.99,,2013-06-27 15:38:00,
2013-06-27 11:43:00,82.5,72.8,29.44,North,-999,-999.0,-999.0,72,-99.99,,,-99.99,,2013-06-27 15:43:00,
2013-06-27 11:48:00,82.7,72.9,29.44,North,-999,-999.0,-999.0,72,-99.99,,,-99.99,,2013-06-27 15:48:00,
2013-06-27 11:53:00,83.1,73.1,29.43,North,-999,-999.0,-999.0,72,-99.99,,,-99.99,,2013-06-27 15:53:00,
2013-06-27 11:58:00,83.1,73.4,29.43,North,-999,-999.0,-999.0,72,-99.99,,,-99.99,,2013-06-27 15:58:00,
2013-06-27 12:03:00,83.3,73.7,29.43,North,-999,-999.0,-999.0,73,-99.99,,,-99.99,,2013-06-27 16:03:00,
2013-06-27 12:08:00,83.4,73.4,29.43,North,-999,-999.0,-999.0,72,-99.99,,,-99.99,,2013-06-27 16:08:00,
2013-06-27 12:13:00,84.0,73.9,29.43,North,-999,-999.0,-999.0,71,-99.99,,,-99.99,,2013-06-27 16:13:00,
2013-06-27 12:18:00,84.0,73.8,29.42,North,-999,-999.0,-999.0,71,-99.99,,,-99.99,,2013-06-27 16:18:00,
2013-06-27 12:23:00,84.0,73.3,29.42,North,-999,-999.0,-999.0,70,-99.99,,,-99.99,,2013-06-27 16:23:00,
2013-06-27 12:28:00,84.2,73.5,29.42,North,-999,-999.0,-999.0,70,-99.99,,,-99.99,,2013-06-27 16:28:00,
2013-06-27 12:33:00,84.5,73.8,29.41,North,-999,-999.0,-999.0,70,-99.99,,,-99.99,,2013-06-27 16:33:00,
2013-06-27 12:38:00,84.5,73.8,29.41,North,-999,-999.0,-999.0,70,-99.99,,,-99.99,,2013-06-27 16:38:00,
2013-06-27 12:43:00,84.5,73.8,29.41,North,-999,-999.0,-999.0,70,-99.99,,,-99.99,,2013-06-27 16:43:00,
2013-06-27 12:48:00,84.7,74.1,29.41,North,-999,-999.0,-999.0,70,-99.99,,,-99.99,,2013-06-27 16:48:00,
2013-06-27 12:53:00,84.7,74.1,29.41,North,-999,-999.0,-999.0,70,-99.99,,,-99.99,,2013-06-27 16:53:00,
2013-06-27 12:58:00,84.9,74.2,29.40,North,-999,-999.0,-999.0,70,-99.99,,,-99.99,,2013-06-27 16:58:00,
2013-06-27 13:03:00,85.1,74.1,29.40,North,-999,-999.0,-999.0,69,-99.99,,,-99.99,,2013-06-27 17:03:00,
2013-06-27 13:08:00,85.2,74.6,29.40,North,-999,-999.0,-999.0,70,-99.99,,,-99.99,,2013-06-27 17:08:00,
2013-06-27 13:13:00,86.0,74.6,29.40,North,-999,-999.0,-999.0,68,-99.99,,,-99.99,,2013-06-27 17:13:00,
2013-06-27 13:18:00,85.8,74.8,29.40,North,-999,-999.0,-999.0,69,-99.99,,,-99.99,,2013-06-27 17:18:00,
2013-06-27 13:23:00,85.6,75.1,29.40,North,-999,-999.0,-999.0,70,-99.99,,,-99.99,,2013-06-27 17:23:00,
2013-06-27 13:28:00,85.4,74.6,29.39,North,-999,-999.0,-999.0,69,-99.99,,,-99.99,,2013-06-27 17:28:00,
2013-06-27 13:33:00,84.9,74.6,29.39,North,-999,-999.0,-999.0,71,-99.99,,,-99.99,,2013-06-27 17:33:00,
2013-06-27 13:38:00,84.5,74.4,29.39,North,-999,-999.0,-999.0,71,-99.99,,,-99.99,,2013-06-27 17:38:00,
2013-06-27 13:43:00,84.7,74.5,29.39,North,-999,-999.0,-999.0,71,-99.99,,,-99.99,,2013-06-27 17:43:00,
2013-06-27 13:48:00,84.7,73.9,29.39,North,-999,-999.0,-999.0,69,-99.99,,,-99.99,,2013-06-27 17:48:00,
2013-06-27 13:53:00,84.7,73.6,29.38,North,-999,-999.0,-999.0,69,-99.99,,,-99.99,,2013-06-27 17:53:00,
2013-06-27 13:58:00,84.2,73.4,29.38,North,-999,-999.0,-999.0,69,-99.99,,,-99.99,,2013-06-27 17:58:00,
2013-06-27 14:03:00,83.8,73.5,29.38,North,-999,-999.0,-999.0,71,-99.99,,,-99.99,,2013-06-27 18:03:00,
2013-06-27 14:08:00,84.0,73.6,29.38,North,-999,-999.0,-999.0,71,-99.99,,,-99.99,,2013-06-27 18:08:00,
2013-06-27 14:13:00,84.3,73.8,29.38,North,-999,-999.0,-999.0,70,-99.99,,,-99.99,,2013-06-27 18:13:00,
2013-06-27 14:18:00,85.1,74.1,29.38,North,-999,-999.0,-999.0,69,-99.99,,,-99.99,,2013-06-27 18:18:00,
2013-06-27 14:23:00,85.6,73.7,29.38,North,-999,-999.0,-999.0,66,-99.99,,,-99.99,,2013-06-27 18:23:00,
2013-06-27 14:28:00,85.4,74.0,29.38,North,-999,-999.0,-999.0,68,-99.99,,,-99.99,,2013-06-27 18:28:00,
2013-06-27 14:33:00,85.1,73.7,29.38,North,-999,-999.0,-999.0,68,-99.99,,,-99.99,,2013-06-27 18:33:00,
2013-06-27 14:38:00,84.9,73.8,29.38,North,-999,-999.0,-999.0,69,-99.99,,,-99.99,,2013-06-27 18:38:00,
2013-06-27 14:43:00,84.3,73.5,29.38,North,-999,-999.0,-999.0,70,-99.99,,,-99.99,,2013-06-27 18:43:00,
2013-06-27 14:48:00,84.2,73.5,29.38,North,-999,-999.0,-999.0,70,-99.99,,,-99.99,,2013-06-27 18:48:00,
2013-06-27 14:53:00,83.8,73.3,29.38,North,-999,-999.0,-999.0,70,-99.99,,,-99.99,,2013-06-27 18:53:00,
2013-06-27 14:58:00,83.3,73.4,29.38,North,-999,-999.0,-999.0,72,-99.99,,,-99.99,,2013-06-27 18:58:00,
2013-06-27 15:03:00,83.1,73.3,29.38,North,-999,-999.0,-999.0,72,-99.99,,,-99.99,,2013-06-27 19:03:00,
2013-06-27 15:08:00,82.9,73.7,29.38,North,-999,-999.0,-999.0,74,-99.99,,,-99.99,,2013-06-27 19:08:00,
2013-06-27 15:13:00,82.5,73.5,29.38,North,-999,-999.0,-999.0,74,-99.99,,,-99.99,,2013-06-27 19:13:00,
2013-06-27 15:18:00,82.2,73.2,29.38,North,-999,-999.0,-999.0,74,-99.99,,,-99.99,,2013-06-27 19:18:00,
2013-06-27 15:23:00,82.2,73.3,29.38,North,-999,-999.0,-999.0,75,-99.99,,,-99.99,,2013-06-27 19:23:00,
2013-06-27 15:28:00,82.4,73.3,29.38,North,-999,-999.0,-999.0,74,-99.99,,,-99.99,,2013-06-27 19:28:00,
2013-06-27 15:33:00,82.5,73.3,29.38,North,-999,-999.0,-999.0,74,-99.99,,,-99.99,,2013-06-27 19:33:00,
2013-06-27 15:38:00,82.2,73.0,29.38,North,-999,-999.0,-999.0,74,-99.99,,,-99.99,,2013-06-27 19:38:00,
2013-06-27 15:43:00,81.8,72.9,29.38,North,-999,-999.0,-999.0,75,-99.99,,,-99.99,,2013-06-27 19:43:00,
2013-06-27 15:48:00,81.6,73.2,29.38,North,-999,-999.0,-999.0,76,-99.99,,,-99.99,,2013-06-27 19:48:00,
2013-06-27 15:53:00,81.6,73.2,29.38,North,-999,-999.0,-999.0,76,-99.99,,,-99.99,,2013-06-27 19:53:00,
2013-06-27 15:58:00,81.5,73.4,29.38,North,-999,-999.0,-999.0,77,-99.99,,,-99.99,,2013-06-27 19:58:00,
2013-06-27 16:03:00,81.1,73.0,29.37,North,-999,-999.0,-999.0,77,-99.99,,,-99.99,,2013-06-27 20:03:00,
2013-06-27 16:08:00,80.9,72.9,29.37,North,-999,-999.0,-999.0,77,-99.99,,,-99.99,,2013-06-27 20:08:00,
2013-06-27 16:13:00,80.9,73.1,29.37,North,-999,-999.0,-999.0,78,-99.99,,,-99.99,,2013-06-27 20:13:00,
2013-06-27 16:18:00,81.1,73.2,29.36,North,-999,-999.0,-999.0,77,-99.99,,,-99.99,,2013-06-27 20:18:00,
2013-06-27 16:23:00,81.1,72.4,29.36,North,-999,-999.0,-999.0,75,-99.99,,,-99.99,,2013-06-27 20:23:00,
2013-06-27 16:35:00,81.1,72.9,29.36,North,-999,-999.0,-999.0,77,-99.99,,,-99.99,,2013-06-27 20:35:00,
2013-06-27 16:42:00,81.5,72.8,29.36,North,-999,-999.0,-999.0,75,-99.99,,,-99.99,,2013-06-27 20:42:00,
2013-06-27 16:49:00,81.5,71.4,29.36,North,-999,-999.0,-999.0,71,-99.99,,,-99.99,,2013-06-27 20:49:00,
2013-06-27 16:54:00,81.1,71.3,29.36,North,-999,-999.0,-999.0,72,-99.99,,,-99.99,,2013-06-27 20:54:00,
2013-06-27 17:00:00,80.7,71.1,29.36,North,-999,-999.0,-999.0,73,-99.99,,,-99.99,,2013-06-27 21:00:00,
2013-06-27 17:06:00,80.2,70.8,29.36,North,-999,-999.0,-999.0,73,-99.99,,,-99.99,,2013-06-27 21:06:00,
2013-06-27 17:13:00,80.4,71.0,29.36,North,-999,-999.0,-999.0,73,-99.99,,,-99.99,,2013-06-27 21:13:00,
2013-06-27 17:18:00,80.9,71.4,29.35,North,-999,-999.0,-999.0,73,-99.99,,,-99.99,,2013-06-27 21:18:00,
2013-06-27 17:24:00,80.9,71.3,29.35,North,-999,-999.0,-999.0,73,-99.99,,,-99.99,,2013-06-27 21:24:00,
2013-06-27 17:29:00,80.7,70.9,29.35,North,-999,-999.0,-999.0,72,-99.99,,,-99.99,,2013-06-27 21:29:00,
2013-06-27 17:34:00,80.6,71.4,29.35,North,-999,-999.0,-999.0,74,-99.99,,,-99.99,,2013-06-27 21:34:00,
2013-06-27 17:42:00,80.7,71.5,29.35,North,-999,-999.0,-999.0,74,-99.99,,,-99.99,,2013-06-27 21:42:00,
2013-06-27 17:50:00,81.8,71.9,29.34,North,-999,-999.0,-999.0,72,-99.99,,,-99.99,,2013-06-27 21:50:00,
2013-06-27 17:55:00,82.4,71.9,29.34,North,-999,-999.0,-999.0,70,-99.99,,,-99.99,,2013-06-27 21:55:00,
2013-06-27 18:05:00,82.5,71.7,29.34,North,-999,-999.0,-999.0,69,-99.99,,,-99.99,,2013-06-27 22:05:00,
2013-06-27 18:13:00,82.5,71.9,29.34,North,-999,-999.0,-999.0,70,-99.99,,,-99.99,,2013-06-27 22:13:00,
2013-06-27 18:18:00,82.5,71.9,29.35,North,-999,-999.0,-999.0,70,-99.99,,,-99.99,,2013-06-27 22:18:00,
2013-06-27 18:26:00,82.7,71.8,29.34,North,-999,-999.0,-999.0,69,-99.99,,,-99.99,,2013-06-27 22:26:00,
2013-06-27 18:31:00,82.7,71.9,29.35,North,-999,-999.0,-999.0,69,-99.99,,,-99.99,,2013-06-27 22:31:00,
2013-06-27 18:36:00,82.4,71.9,29.35,North,-999,-999.0,-999.0,70,-99.99,,,-99.99,,2013-06-27 22:36:00,
2013-06-27 18:43:00,82.0,71.7,29.35,North,-999,-999.0,-999.0,71,-99.99,,,-99.99,,2013-06-27 22:43:00,
2013-06-27 18:48:00,82.2,71.8,29.35,North,-999,-999.0,-999.0,71,-99.99,,,-99.99,,2013-06-27 22:48:00,
2013-06-27 18:57:00,82.4,71.9,29.34,North,-999,-999.0,-999.0,70,-99.99,,,-99.99,,2013-06-27 22:57:00,
2013-06-27 19:03:00,82.0,71.5,29.35,North,-999,-999.0,-999.0,70,-99.99,,,-99.99,,2013-06-27 23:03:00,
2013-06-27 19:08:00,81.8,71.3,29.35,North,-999,-999.0,-999.0,70,-99.99,,,-99.99,,2013-06-27 23:08:00,
2013-06-27 19:15:00,81.6,71.2,29.35,North,-999,-999.0,-999.0,71,-99.99,,,-99.99,,2013-06-27 23:15:00,
2013-06-27 19:20:00,81.5,71.3,29.35,North,-999,-999.0,-999.0,71,-99.99,,,-99.99,,2013-06-27 23:20:00,
2013-06-27 19:27:00,81.5,70.7,29.35,North,-999,-999.0,-999.0,70,-99.99,,,-99.99,,2013-06-27 23:27:00,
2013-06-27 19:32:00,81.5,70.7,29.35,North,-999,-999.0,-999.0,70,-99.99,,,-99.99,,2013-06-27 23:32:00,
2013-06-27 19:37:00,81.3,70.3,29.35,North,-999,-999.0,-999.0,69,-99.99,,,-99.99,,2013-06-27 23:37:00,
2013-06-27 19:43:00,81.1,70.3,29.35,North,-999,-999.0,-999.0,70,-99.99,,,-99.99,,2013-06-27 23:43:00,
2013-06-27 19:54:00,80.7,70.1,29.36,North,-999,-999.0,-999.0,70,-99.99,,,-99.99,,2013-06-27 23:54:00,
2013-06-27 19:59:00,80.7,70.0,29.35,North,-999,-999.0,-999.0,70,-99.99,,,-99.99,,2013-06-27 23:59:00,
2013-06-27 20:09:00,80.4,69.9,29.35,North,-999,-999.0,-999.0,70,-99.99,,,-99.99,,2013-06-28 00:09:00,
2013-06-27 20:18:00,80.2,69.6,29.35,North,-999,-999.0,-999.0,70,-99.99,,,-99.99,,2013-06-28 00:18:00,
2013-06-27 20:25:00,80.2,69.9,29.35,North,-999,-999.0,-999.0,71,-99.99,,,-99.99,,2013-06-28 00:25:00,
2013-06-27 20:34:00,79.8,69.5,29.35,North,-999,-999.0,-999.0,71,-99.99,,,-99.99,,2013-06-28 00:34:00,
2013-06-27 20:43:00,79.8,69.6,29.35,North,-999,-999.0,-999.0,71,-99.99,,,-99.99,,2013-06-28 00:43:00,
2013-06-27 20:48:00,79.8,69.5,29.35,North,-999,-999.0,-999.0,71,-99.99,,,-99.99,,2013-06-28 00:48:00,
2013-06-27 20:54:00,79.8,69.5,29.35,North,-999,-999.0,-999.0,71,-99.99,,,-99.99,,2013-06-28 00:54:00,
2013-06-27 21:06:00,79.7,69.6,29.36,North,-999,-999.0,-999.0,71,-99.99,,,-99.99,,2013-06-28 01:06:00,
2013-06-27 21:11:00,79.7,69.5,29.36,North,-999,-999.0,-999.0,71,-99.99,,,-99.99,,2013-06-28 01:11:00,
2013-06-27 21:17:00,79.7,69.6,29.36,North,-999,-999.0,-999.0,71,-99.99,,,-99.99,,2013-06-28 01:17:00,
2013-06-27 21:23:00,79.5,69.3,29.37,North,-999,-999.0,-999.0,71,-99.99,,,-99.99,,2013-06-28 01:23:00,
2013-06-27 21:30:00,79.5,69.3,29.37,North,-999,-999.0,-999.0,71,-99.99,,,-99.99,,2013-06-28 01:30:00,
2013-06-27 21:35:00,79.3,69.0,29.37,North,-999,-999.0,-999.0,71,-99.99,,,-99.99,,2013-06-28 01:35:00,
2013-06-27 21:41:00,79.3,68.8,29.37,North,-999,-999.0,-999.0,70,-99.99,,,-99.99,,2013-06-28 01:41:00,
2013-06-27 21:49:00,79.1,68.6,29.37,North,-999,-999.0,-999.0,70,-99.99,,,-99.99,,2013-06-28 01:49:00,
2013-06-27 21:56:00,78.9,68.5,29.37,North,-999,-999.0,-999.0,70,-99.99,,,-99.99,,2013-06-28 01:56:00,
2013-06-27 22:02:00,78.8,68.4,29.37,North,-999,-999.0,-999.0,71,-99.99,,,-99.99,,2013-06-28 02:02:00,
2013-06-27 22:09:00,78.8,68.5,29.37,North,-999,-999.0,-999.0,71,-99.99,,,-99.99,,2013-06-28 02:09:00,
2013-06-27 22:18:00,78.8,68.5,29.37,North,-999,-999.0,-999.0,71,-99.99,,,-99.99,,2013-06-28 02:18:00,
2013-06-27 22:27:00,78.6,68.5,29.37,North,-999,-999.0,-999.0,71,-99.99,,,-99.99,,2013-06-28 02:27:00,
2013-06-27 22:36:00,78.4,68.2,29.37,North,-999,-999.0,-999.0,71,-99.99,,,-99.99,,2013-06-28 02:36:00,
2013-06-27 22:42:00,78.4,68.2,29.37,North,-999,-999.0,-999.0,71,-99.99,,,-99.99,,2013-06-28 02:42:00,
2013-06-27 22:49:00,78.4,68.2,29.37,North,-999,-999.0,-999.0,71,-99.99,,,-99.99,,2013-06-28 02:49:00,
2013-06-27 22:58:00,78.4,68.2,29.37,North,-999,-999.0,-999.0,71,-99.99,,,-99.99,,2013-06-28 02:58:00,
2013-06-27 23:06:00,78.0,68.0,29.37,North,-999,-999.0,-999.0,72,-99.99,,,-99.99,,2013-06-28 03:06:00,
2013-06-27 23:14:00,78.0,68.1,29.37,North,-999,-999.0,-999.0,72,-99.99,,,-99.99,,2013-06-28 03:14:00,
2013-06-27 23:19:00,78.0,68.3,29.36,North,-999,-999.0,-999.0,72,-99.99,,,-99.99,,2013-06-28 03:19:00,
2013-06-27 23:28:00,77.9,68.3,29.36,North,-999,-999.0,-999.0,73,-99.99,,,-99.99,,2013-06-28 03:28:00,
2013-06-27 23:36:00,77.9,68.3,29.36,North,-999,-999.0,-999.0,73,-99.99,,,-99.99,,2013-06-28 03:36:00,
2013-06-27 23:42:00,77.7,68.1,29.36,North,-999,-999.0,-999.0,73,-99.99,,,-99.99,,2013-06-28 03:42:00,
2013-06-27 23:47:00,77.7,68.1,29.36,North,-999,-999.0,-999.0,73,-99.99,,,-99.99,,2013-06-28 03:47:00,
2013-06-27 23:55:00,77.7,68.1,29.36,North,-999,-999.0,-999.0,73,-99.99,,,-99.99,,2013-06-28 03:55:00,